Weather History for Bainbridge, GA

Change the Weather History Date:

Tuesday, January 15, 2013

  Actual Average (KMAI) Record (KMAI)
Temperature  
Mean Temperature 70 °F 50 °F  
Max Temperature 80 °F 61 °F 79 °F (2013)
Min Temperature 59 °F 39 °F 24 °F (2011)
Degree Days  
Heating Degree Days 0    
Month to date heating degree days  
Since 1 July heating degree days  
Cooling Degree Days 4    
Month to date cooling degree days  
Year to date cooling degree days  
Growing Degree Days 20 (Base 50)    
Moisture  
Dew Point 63 °F    
Average Humidity 84    
Maximum Humidity 100    
Minimum Humidity 54    
Precipitation  
Precipitation 0.00 in 0.13 in 1.02 in (1998)
Month to date precipitation 2.29  
Year to date precipitation 2.29  
Sea Level Pressure  
Sea Level Pressure 30.07 in    
Wind  
Wind Speed 5 mph (South)    
Max Wind Speed 14 mph    
Max Gust Speed 21 mph    
Visibility 7 miles    
Events Fog    
T = Trace of Precipitation, MM = Missing Value Source: NWS Daily Summary

Daily Weather History Graph

Daily Weather History Graph

Search for Another Location

Airport:

Trip Planner

Search our weather history database for the weather conditions in past years. The results will help you decide how hot, cold, wet, or windy it might be!

Date:

Astronomy

Jan. 15, 2013 Rise Set
Actual Time 7:37 AM EST 5:59 PM EST
Civil Twilight 7:11 AM EST 6:25 PM EST
Nautical Twilight 6:41 AM EST 6:55 PM EST
Astronomical Twilight 6:12 AM EST 7:24 PM EST
Moon 10:02 AM EST (1/15) 10:25 PM EST (1/15)
Length of Visible Light 11h 14m
Length of Day
10h 22m
Waxing Crescent, 19% of the Moon is Illuminated
Jan 15
Waxing Crescent
Jan 18
First Quarter
Jan 26
Full
Feb 3
Last Quarter
Feb 10
New

Hourly Weather History & Observations

Time (EST) Temp. Heat Index Dew Point Humidity Pressure Visibility Wind Dir Wind Speed Gust Speed Precip Events Conditions
12:15 AM 60.8 °F - 60.8 °F 100% 30.13 in 7.0 mi Calm Calm - N/A   Clear
12:55 AM 59.0 °F - 59.0 °F 100% 30.12 in 5.0 mi Calm Calm - N/A   Clear
1:15 AM 59.0 °F - 59.0 °F 100% 30.12 in 4.0 mi SSE 3.5 mph - N/A   Clear
1:35 AM 60.8 °F - 60.8 °F 100% 30.11 in 4.0 mi SSE 4.6 mph - N/A   Clear
1:55 AM 62.6 °F - 60.8 °F 94% 30.10 in 5.0 mi SSE 6.9 mph - N/A   Clear
2:15 AM 62.6 °F - 62.6 °F 100% 30.10 in 5.0 mi South 5.8 mph - N/A   Clear
2:35 AM 62.6 °F - 60.8 °F 94% 30.10 in 5.0 mi South 4.6 mph - N/A   Clear
2:55 AM 62.6 °F - 62.6 °F 100% 30.09 in 7.0 mi South 4.6 mph - N/A   Clear
3:15 AM 62.6 °F - 60.8 °F 94% 30.10 in 5.0 mi Calm Calm - N/A   Clear
3:35 AM 62.6 °F - 60.8 °F 94% 30.09 in 5.0 mi South 3.5 mph - N/A   Clear
3:55 AM 62.6 °F - 60.8 °F 94% 30.09 in 5.0 mi Calm Calm - N/A   Clear
4:15 AM 60.8 °F - 59.0 °F 94% 30.09 in 0.2 mi Calm Calm - N/A Fog Fog
4:35 AM 59.0 °F - 59.0 °F 100% 30.08 in 0.2 mi Calm Calm - N/A Fog Fog
4:55 AM 59.0 °F - 57.2 °F 94% 30.07 in 0.5 mi SSE 3.5 mph - N/A Fog Fog
5:15 AM 59.0 °F - 59.0 °F 100% 30.08 in 0.8 mi Calm Calm - N/A   Overcast
5:55 AM 60.8 °F - 59.0 °F 94% 30.07 in 1.5 mi Calm Calm - N/A   Overcast
6:15 AM 62.6 °F - 60.8 °F 94% 30.08 in 2.5 mi South 4.6 mph - N/A   Overcast
6:35 AM 62.6 °F - 62.6 °F 100% 30.08 in 2.5 mi Calm Calm - N/A   Overcast
6:55 AM 62.6 °F - 62.6 °F 100% 30.09 in 3.0 mi Calm Calm - N/A   Overcast
7:15 AM 62.6 °F - 62.6 °F 100% 30.09 in 4.0 mi Calm Calm - N/A   Overcast
7:35 AM 62.6 °F - 62.6 °F 100% 30.10 in 3.0 mi Calm Calm - N/A   Overcast
7:55 AM 62.6 °F - 62.6 °F 100% 30.11 in 1.5 mi Calm Calm - N/A   Overcast
8:15 AM 62.6 °F - 62.6 °F 100% 30.11 in 1.2 mi Calm Calm - N/A   Overcast
8:35 AM 62.6 °F - 62.6 °F 100% 30.12 in 1.0 mi South 4.6 mph - N/A   Overcast
8:55 AM 62.6 °F - 62.6 °F 100% 30.12 in 1.2 mi SSE 8.1 mph - N/A   Overcast
9:15 AM 64.4 °F - 62.6 °F 94% 30.12 in 1.5 mi SSE 6.9 mph - N/A   Overcast
9:35 AM 64.4 °F - 64.4 °F 100% 30.12 in 2.5 mi SSE 8.1 mph - N/A   Overcast
9:55 AM 64.4 °F - 62.6 °F 94% 30.12 in 3.0 mi South 9.2 mph - N/A   Overcast
10:15 AM 64.4 °F - 64.4 °F 100% 30.12 in 5.0 mi South 5.8 mph - N/A   Overcast
10:35 AM 68.0 °F - 64.4 °F 88% 30.12 in 10.0 mi South 11.5 mph - N/A   Overcast
11:15 AM 71.6 °F - 64.4 °F 78% 30.10 in 10.0 mi SSW 8.1 mph 16.1 mph N/A   Scattered Clouds
11:35 AM 73.4 °F - 64.4 °F 73% 30.09 in 10.0 mi South 10.4 mph - N/A   Scattered Clouds
11:55 AM 77.0 °F - 66.2 °F 69% 30.08 in 10.0 mi SSW 11.5 mph - N/A   Clear
12:15 PM 77.0 °F - 62.6 °F 61% 30.07 in 10.0 mi South 12.7 mph 16.1 mph N/A   Scattered Clouds
12:35 PM 77.0 °F - 62.6 °F 61% 30.06 in 10.0 mi South 10.4 mph 19.6 mph N/A   Scattered Clouds
12:55 PM 78.8 °F - 62.6 °F 57% 30.05 in 10.0 mi SSW 10.4 mph - N/A   Scattered Clouds
1:15 PM 80.6 °F 81.8 °F 62.6 °F 54% 30.05 in 10.0 mi SSW 13.8 mph 19.6 mph N/A   Mostly Cloudy
1:35 PM 78.8 °F - 64.4 °F 61% 30.04 in 10.0 mi SSW 13.8 mph - N/A   Mostly Cloudy
1:55 PM 77.0 °F - 62.6 °F 61% 30.03 in 10.0 mi SSW 12.7 mph 20.7 mph N/A   Mostly Cloudy
2:15 PM 78.8 °F - 62.6 °F 57% 30.03 in 10.0 mi SSW 11.5 mph 16.1 mph N/A   Mostly Cloudy
2:55 PM 77.0 °F - 62.6 °F 61% 30.02 in 10.0 mi South 12.7 mph 18.4 mph N/A   Overcast
3:15 PM 77.0 °F - 62.6 °F 61% 30.03 in 10.0 mi South 11.5 mph - N/A   Overcast
3:35 PM 77.0 °F - 62.6 °F 61% 30.03 in 10.0 mi SSW 10.4 mph - N/A   Overcast
3:55 PM 77.0 °F - 62.6 °F 61% 30.02 in 10.0 mi SSW 8.1 mph - N/A   Mostly Cloudy
4:15 PM 77.0 °F - 62.6 °F 61% 30.03 in 10.0 mi South 8.1 mph - N/A   Scattered Clouds
4:35 PM 77.0 °F - 62.6 °F 61% 30.03 in 10.0 mi South 9.2 mph 16.1 mph N/A   Scattered Clouds
4:55 PM 77.0 °F - 64.4 °F 65% 30.04 in 10.0 mi South 10.4 mph - N/A   Mostly Cloudy
5:15 PM 77.0 °F - 64.4 °F 65% 30.05 in 10.0 mi South 8.1 mph - N/A   Mostly Cloudy
5:35 PM 73.4 °F - 62.6 °F 69% 30.05 in 10.0 mi South 11.5 mph 18.4 mph N/A   Mostly Cloudy
5:55 PM 73.4 °F - 62.6 °F 69% 30.04 in 10.0 mi South 10.4 mph - N/A   Scattered Clouds
6:15 PM 71.6 °F - 62.6 °F 73% 30.04 in 10.0 mi SSE 6.9 mph - N/A   Clear
6:35 PM 71.6 °F - 62.6 °F 73% 30.05 in 10.0 mi South 9.2 mph - N/A   Clear
6:55 PM 71.6 °F - 64.4 °F 78% 30.05 in 10.0 mi SSE 10.4 mph - N/A   Clear
7:15 PM 71.6 °F - 64.4 °F 78% 30.05 in 10.0 mi SSE 8.1 mph - N/A   Clear
7:35 PM 71.6 °F - 64.4 °F 78% 30.05 in 10.0 mi SSE 8.1 mph - N/A   Clear
7:55 PM 71.6 °F - 64.4 °F 78% 30.05 in 10.0 mi South 8.1 mph - N/A   Clear
8:15 PM 71.6 °F - 64.4 °F 78% 30.05 in 10.0 mi SSE 6.9 mph - N/A   Clear
8:35 PM 69.8 °F - 64.4 °F 83% 30.04 in 10.0 mi SSE 6.9 mph - N/A   Clear
8:55 PM 68.0 °F - 62.6 °F 83% 30.03 in 10.0 mi SSE 5.8 mph - N/A   Clear
9:15 PM 68.0 °F - 62.6 °F 83% 30.03 in 10.0 mi SSE 3.5 mph - N/A   Clear
9:35 PM 64.4 °F - 62.6 °F 94% 30.03 in 10.0 mi SSE 4.6 mph - N/A   Clear
9:55 PM 64.4 °F - 62.6 °F 94% 30.03 in 10.0 mi SSE 5.8 mph - N/A   Scattered Clouds
10:15 PM 66.2 °F - 62.6 °F 88% 30.04 in 10.0 mi South 5.8 mph - N/A   Mostly Cloudy
10:35 PM 64.4 °F - 62.6 °F 94% 30.03 in 10.0 mi South 4.6 mph - N/A   Mostly Cloudy
10:55 PM 66.2 °F - 64.4 °F 94% 30.03 in 10.0 mi South 6.9 mph - N/A   Overcast
11:15 PM 68.0 °F - 64.4 °F 88% 30.03 in 10.0 mi SSE 8.1 mph - N/A   Overcast
11:35 PM 68.0 °F - 64.4 °F 88% 30.03 in 10.0 mi South 10.4 mph - N/A   Overcast
11:55 PM 68.0 °F - 64.4 °F 88% 30.03 in 10.0 mi South 9.2 mph - N/A   Overcast